DW3766 Weather Reports


time (UTC)temp
C
wind
direction
speed
KPH
gust
KPH
rain 1hr
cm
rain 24hr
cm
rain mn
cm
humidity
%
barometer
mb
20260510120707 17 326 0.0 6.4 0.00 0.00 0.00 92 1011.8
20260510120115 17 326 3.2 4.8 0.00 0.00 0.00 92 1011.6
20260510115646 17 326 3.2 6.4 0.00 0.00 0.00 91 1011.6
20260510115208 17 326 1.6 3.2 0.00 0.00 0.00 91 1011.6
20260510114641 17 326 1.6 3.2 0.00 0.00 0.00 91 1011.7
20260510114207 17 326 0.0 0.0 0.00 0.00 0.00 91 1011.6
20260510113632 17 326 0.0 0.0 0.00 0.00 0.00 91 1011.6
20260510113146 17 326 0.0 0.0 0.00 0.00 0.00 91 1011.6
20260510112612 17 326 0.0 3.2 0.00 0.00 0.00 91 1011.5
20260510112137 17 326 0.0 8.0 0.00 0.00 0.00 90 1011.5
20260510111650 17 326 4.8 8.0 0.00 0.00 0.00 90 1011.5
20260510111216 17 317 1.6 3.2 0.00 0.00 0.00 90 1011.5
20260510110629 17 340 0.0 0.0 0.00 0.00 0.00 90 1011.5
20260510110154 17 340 0.0 6.4 0.00 0.00 0.00 90 1011.6
20260510105701 17 340 0.0 6.4 0.00 0.00 0.00 90 1011.7
20260510105125 17 340 3.2 8.0 0.00 0.00 0.00 90 1011.5
20260510104659 17 324 4.8 8.0 0.00 0.00 0.00 90 1011.4
20260510104202 17 300 6.4 8.0 0.00 0.00 0.00 90 1011.4
20260510103634 17 315 0.0 0.0 0.00 0.00 0.00 90 1011.5
20260510103139 17 315 0.0 0.0 0.00 0.00 0.00 89 1011.4
20260510102712 17 315 0.0 0.0 0.00 0.00 0.00 90 1011.4
20260510102117 17 315 0.0 0.0 0.00 0.00 0.00 90 1011.3
20260510101643 17 315 0.0 0.0 0.00 0.00 0.00 89 1011.3
20260510101156 17 315 0.0 1.6 0.00 0.00 0.00 89 1011.2
20260510100701 17 315 0.0 3.2 0.00 0.00 0.00 89 1011.3
20260510100115 18 315 0.0 3.2 0.00 0.00 0.00 89 1011.4
20260510095641 18 315 0.0 1.6 0.00 0.00 0.00 89 1011.5
20260510095115 18 315 0.0 1.6 0.00 0.00 0.00 89 1011.5
20260510094641 18 315 1.6 1.6 0.00 0.00 0.00 88 1011.5
20260510094149 18 315 0.0 1.6 0.00 0.00 0.00 88 1011.6
20260510093615 18 315 0.0 1.6 0.00 0.00 0.00 88 1011.7
20260510093148 18 315 0.0 3.2 0.00 0.00 0.00 88 1011.6
20260510092613 18 315 0.0 6.4 0.00 0.00 0.00 88 1011.6
20260510092146 18 315 1.6 6.4 0.00 0.00 0.00 88 1011.6
20260510091648 18 298 0.0 6.4 0.00 0.00 0.00 88 1011.6
20260510091114 18 298 1.6 3.2 0.00 0.00 0.00 87 1011.6
20260510090647 18 298 0.0 3.2 0.00 0.00 0.00 87 1011.6
20260510090209 18 298 0.0 3.2 0.00 0.00 0.00 87 1011.6
20260510085643 18 298 0.0 1.6 0.00 0.00 0.00 87 1011.7
20260510085210 18 298 0.0 1.6 0.00 0.00 0.00 87 1011.6
20260510084643 18 299 0.0 1.6 0.00 0.00 0.00 87 1011.5
20260510084149 18 298 0.0 1.6 0.00 0.00 0.00 87 1011.4
20260510083701 18 299 0.0 1.6 0.00 0.00 0.00 87 1011.4
20260510083205 18 299 0.0 0.0 0.00 0.00 0.00 87 1011.4
20260510082630 18 298 0.0 1.6 0.00 0.00 0.00 87 1011.4
20260510082203 18 298 0.0 1.6 0.00 0.00 0.00 86 1011.4
20260510081629 18 298 0.0 1.6 0.00 0.00 0.00 86 1011.3
20260510081201 18 298 0.0 1.6 0.00 0.00 0.00 86 1011.2
20260510080629 18 298 0.0 0.0 0.00 0.00 0.00 86 1011.2
20260510080202 18 298 0.0 0.0 0.00 0.00 0.00 86 1011.2
20260510075728 18 298 0.0 0.0 0.00 0.00 0.00 86 1011.1
20260510075133 18 299 0.0 0.0 0.00 0.00 0.00 86 1011.1
20260510074645 18 298 0.0 0.0 0.00 0.00 0.00 85 1011.2
20260510074206 18 298 0.0 3.2 0.00 0.00 0.00 85 1011.2
20260510073632 18 298 0.0 3.2 0.00 0.00 0.00 85 1011.3
20260510073123 19 299 0.0 3.2 0.00 0.00 0.00 85 1011.3
20260510072648 19 299 0.0 3.2 0.00 0.00 0.00 84 1011.3
20260510072113 19 299 0.0 0.0 0.00 0.00 0.00 84 1011.2
20260510071647 19 298 0.0 0.0 0.00 0.00 0.00 84 1011.3
20260510071116 19 298 0.0 1.6 0.00 0.00 0.00 84 1011.2
20260510070650 19 298 0.0 1.6 0.00 0.00 0.00 84 1011.1
20260510070115 19 299 0.0 1.6 0.00 0.00 0.00 84 1011.2
20260510065620 19 298 0.0 1.6 0.00 0.00 0.00 84 1011.2
20260510065146 19 298 0.0 1.6 0.00 0.00 0.00 84 1011.2
20260510064623 20 299 0.0 3.2 0.00 0.00 0.00 83 1011.2
20260510064128 20 298 1.6 3.2 0.00 0.00 0.00 83 1011.3
20260510063626 20 298 0.0 1.6 0.00 0.00 0.00 83 1011.3
20260510063132 20 298 0.0 1.6 0.00 0.00 0.00 82 1011.2
20260510062630 20 298 0.0 0.0 0.00 0.00 0.00 82 1011.3
20260510062113 20 299 0.0 3.2 0.00 0.00 0.00 82 1011.3
20260510061617 20 299 1.6 3.2 0.00 0.00 0.00 81 1011.3
20260510061132 20 299 0.0 0.0 0.00 0.00 0.00 81 1011.4
20260510060619 20 207 0.0 0.0 0.00 0.00 0.00 81 1011.4
20260510060117 20 207 0.0 0.0 0.00 0.00 0.00 80 1011.4
20260510055622 20 207 0.0 0.0 0.00 0.00 0.00 80 1011.4
20260510055148 20 207 0.0 0.0 0.00 0.00 0.00 79 1011.3
20260510054626 20 207 0.0 0.0 0.00 0.00 0.00 78 1011.4
20260510054131 20 207 0.0 0.0 0.00 0.00 0.00 79 1011.3
20260510053630 20 207 0.0 0.0 0.00 0.00 0.00 79 1011.2
20260510053131 20 207 0.0 0.0 0.00 0.00 0.00 78 1011.1
20260510052629 21 207 0.0 0.0 0.00 0.00 0.00 78 1011.1
20260510052132 21 207 0.0 0.0 0.00 0.00 0.00 78 1011.1
20260510051638 21 207 0.0 0.0 0.00 0.00 0.00 78 1011.0
20260510051116 21 207 0.0 0.0 0.00 0.00 0.00 77 1011.0
20260510050614 21 207 0.0 0.0 0.00 0.00 0.00 77 1011.0
20260510050133 21 207 0.0 0.0 0.00 0.00 0.00 76 1011.1
20260510045706 21 207 0.0 0.0 0.00 0.00 0.00 76 1011.0
20260510045130 21 207 0.0 0.0 0.00 0.00 0.00 75 1010.9
20260510044703 21 207 0.0 0.0 0.00 0.00 0.00 75 1010.9
20260510044129 22 207 0.0 0.0 0.00 0.00 0.00 75 1010.9
20260510043659 22 207 0.0 0.0 0.00 0.00 0.00 75 1010.9
20260510043125 22 207 0.0 0.0 0.00 0.00 0.00 74 1010.9
20260510042638 22 207 0.0 0.0 0.00 0.00 0.00 73 1010.9
20260510042145 22 207 0.0 0.0 0.00 0.00 0.00 72 1010.9
20260510041651 22 207 0.0 0.0 0.00 0.00 0.00 71 1010.8
20260510041223 22 207 0.0 0.0 0.00 0.00 0.00 70 1010.8
20260510040632 22 207 0.0 0.0 0.00 0.00 0.00 70 1010.8
20260510040204 22 207 0.0 0.0 0.00 0.00 0.00 70 1010.7
20260510035629 23 207 0.0 0.0 0.00 0.00 0.00 69 1010.6
20260510035203 23 207 0.0 0.0 0.00 0.00 0.00 69 1010.7
20260510034730 23 207 0.0 0.0 0.00 0.00 0.00 68 1010.5
20260510034139 23 207 0.0 0.0 0.00 0.00 0.00 68 1010.5
20260510033705 23 207 0.0 0.0 0.00 0.00 0.00 67 1010.5
20260510033140 23 207 0.0 0.0 0.00 0.00 0.00 66 1010.4
20260510032644 23 207 0.0 0.0 0.00 0.00 0.00 66 1010.3
20260510032202 24 207 0.0 0.0 0.00 0.00 0.00 64 1010.4
20260510031635 24 207 0.0 0.0 0.00 0.00 0.00 63 1010.2
20260510031201 24 207 0.0 0.0 0.00 0.00 0.00 64 1010.3
20260510030636 25 207 0.0 0.0 0.00 0.00 0.00 63 1010.1
20260510030200 25 207 0.0 0.0 0.00 0.00 0.00 63 1010.1
20260510025634 25 207 0.0 0.0 0.00 0.00 0.00 61 1010.1
20260510025158 25 207 0.0 0.0 0.00 0.00 0.00 60 1010.1
20260510024632 25 207 0.0 0.0 0.00 0.00 0.00 60 1010.0
20260510024157 25 207 0.0 0.0 0.00 0.00 0.00 59 1010.0
20260510023700 26 122 0.0 0.0 0.00 0.00 0.00 58 1009.9
20260510023133 26 123 0.0 1.6 0.00 0.00 0.00 57 1009.9
20260510022659 26 122 0.0 1.6 0.00 0.00 0.00 58 1009.8
20260510022115 26 140 0.0 1.6 0.00 0.00 0.00 57 1009.8
20260510021639 26 140 0.0 6.4 0.00 0.00 0.00 56 1009.8
20260510021211 26 140 0.0 9.7 0.00 0.00 0.00 55 1009.8
20260510020636 26 98 3.2 9.7 0.00 0.00 0.00 55 1009.7
20260510020211 26 91 4.8 9.7 0.00 0.00 0.00 54 1009.6
20260510015636 26 89 4.8 9.7 0.00 0.00 0.00 54 1009.5
20260510015206 26 116 6.4 8.0 0.00 0.00 0.00 54 1009.5
20260510014631 27 115 3.2 6.4 0.00 0.00 0.00 55 1009.3
20260510014136 27 101 1.6 4.8 0.00 0.00 0.00 55 1009.1
20260510013614 27 125 1.6 8.0 0.00 0.00 0.00 55 1009.1
20260510013138 27 123 4.8 11.3 0.00 0.00 0.00 54 1009.0
20260510012146 28 89 3.2 9.7 0.00 0.00 0.00 54 1008.9
20260510011650 28 132 4.8 11.3 0.00 0.00 0.00 54 1008.9
20260510011123 28 117 6.4 11.3 0.00 0.00 0.00 53 1008.8
20260510010649 28 98 3.2 6.4 0.00 0.00 0.00 53 1008.7
20260510010221 28 107 3.2 12.9 0.00 0.00 0.00 52 1008.6
20260510005704 28 121 8.0 12.9 0.00 0.00 0.00 51 1008.6
20260510005137 28 129 4.8 14.5 0.00 0.00 0.00 50 1008.5
20260510004703 29 103 8.0 14.5 0.00 0.00 0.00 50 1008.4
20260510004127 29 120 6.4 12.9 0.00 0.00 0.00 53 1008.3
20260510003700 29 128 3.2 11.3 0.00 0.00 0.00 52 1008.2
20260510003227 29 128 4.8 11.3 0.00 0.00 0.00 52 1008.2
20260510002642 30 125 4.8 9.7 0.00 0.00 0.00 52 1008.2
20260510002207 30 89 4.8 9.7 0.00 0.00 0.00 51 1008.1
20260510001640 30 123 6.4 11.3 0.00 0.00 0.00 50 1008.0
20260510001147 30 133 3.2 9.7 0.00 0.00 0.00 51 1008.1
20260510000652 30 134 4.8 11.3 0.00 0.00 0.00 51 1008.0
20260510000145 30 134 4.8 14.5 0.00 0.00 0.00 50 1007.9
20260509235650 30 112 8.0 14.5 0.00 0.00 0.00 50 1007.9
20260509235201 30 124 9.7 14.5 0.00 0.00 0.00 50 1007.9
20260509234627 30 125 8.0 17.7 0.00 0.00 0.00 52 1007.9
20260509234154 30 128 9.7 19.3 0.00 0.00 0.00 52 1007.9
20260509233703 30 157 9.7 20.9 0.00 0.00 0.00 52 1007.9
20260509233131 30 135 11.3 16.1 0.00 0.00 0.00 51 1007.9
20260509232706 30 159 6.4 20.9 0.00 0.00 0.00 51 1007.8
20260509232131 30 143 12.9 20.9 0.00 0.00 0.00 49 1007.9
20260509231703 30 97 6.4 17.7 0.00 0.00 0.00 50 1007.7
20260509231208 30 111 8.0 17.7 0.00 0.00 0.00 50 1007.7
20260509230640 30 92 8.0 19.3 0.00 0.00 0.00 50 1007.8
20260509230203 31 95 11.3 19.3 0.00 0.00 0.00 50 1007.7
20260509225633 31 136 11.3 20.9 0.00 0.00 0.00 48 1007.7
20260509225159 31 98 14.5 20.9 0.00 0.00 0.00 46 1007.7
20260509224632 33 80 12.9 19.3 0.00 0.00 0.00 41 1007.8
20260509224154 33 262 1.6 11.3 0.00 0.00 0.00 38 1007.7
20260509223622 33 214 4.8 11.3 0.00 0.00 0.00 43 1007.6
20260509223156 33 186 6.4 12.9 0.00 0.00 0.00 39 1007.6
20260509222722 33 177 6.4 12.9 0.00 0.00 0.00 37 1007.6
20260509222134 33 204 3.2 9.7 0.00 0.00 0.00 37 1007.6
20260509221658 33 220 3.2 9.7 0.00 0.00 0.00 39 1007.6
20260509221201 32 242 4.8 12.9 0.00 0.00 0.00 42 1007.7
20260509220625 32 219 6.4 14.5 0.00 0.00 0.00 40 1007.7
20260509220157 32 205 8.0 14.5 0.00 0.00 0.00 41 1007.7
20260509215701 32 265 1.6 9.7 0.00 0.00 0.00 40 1007.8
20260509215133 32 117 4.8 8.0 0.00 0.00 0.00 39 1007.8
20260509214700 32 229 3.2 8.0 0.00 0.00 0.00 42 1007.8
20260509214136 32 276 1.6 6.4 0.00 0.00 0.00 43 1007.9
20260509213701 32 267 3.2 8.0 0.00 0.00 0.00 43 1007.9
20260509213126 32 242 4.8 12.9 0.00 0.00 0.00 43 1007.9
20260509212659 32 279 3.2 12.9 0.00 0.00 0.00 43 1008.0
20260509212125 32 217 6.4 12.9 0.00 0.00 0.00 44 1007.9
20260509211637 32 196 6.4 11.3 0.00 0.00 0.00 42 1007.9
20260509211203 32 166 3.2 8.0 0.00 0.00 0.00 44 1007.9
20260509210615 32 169 1.6 4.8 0.00 0.00 0.00 42 1008.0
20260509210140 32 157 1.6 11.3 0.00 0.00 0.00 40 1008.1
20260509205616 32 245 1.6 11.3 0.00 0.00 0.00 40 1008.2
20260509205141 32 285 3.2 9.7 0.00 0.00 0.00 42 1008.3
20260509204613 32 169 6.4 11.3 0.00 0.00 0.00 42 1008.4
20260509204116 32 238 6.4 11.3 0.00 0.00 0.00 43 1008.5
20260509203650 32 188 4.8 11.3 0.00 0.00 0.00 46 1008.5
20260509203115 32 19 1.6 11.3 0.00 0.00 0.00 45 1008.5
20260509202640 32 274 6.4 11.3 0.00 0.00 0.00 42 1008.7
20260509202215 32 253 1.6 12.9 0.00 0.00 0.00 44 1008.7
20260509201619 32 201 6.4 12.9 0.00 0.00 0.00 47 1008.8
20260509201151 32 169 1.6 11.3 0.00 0.00 0.00 46 1008.9
20260509200614 32 248 6.4 11.3 0.00 0.00 0.00 45 1008.9
20260509200147 31 175 0.0 12.9 0.00 0.00 0.00 47 1008.9
20260509195712 31 150 8.0 12.9 0.00 0.00 0.00 47 1009.0
20260509195223 31 199 6.4 12.9 0.00 0.00 0.00 46 1009.0
20260509194728 31 165 8.0 12.9 0.00 0.00 0.00 48 1009.1
20260509194144 31 169 6.4 11.3 0.00 0.00 0.00 49 1009.3
20260509193710 31 160 4.8 11.3 0.00 0.00 0.00 51 1009.4
20260509193200 31 201 1.6 11.3 0.00 0.00 0.00 51 1009.6
20260509192727 30 222 6.4 11.3 0.00 0.00 0.00 51 1009.7
20260509192132 30 269 1.6 6.4 0.00 0.00 0.00 53 1009.8
20260509191137 30 269 3.2 9.7 0.00 0.00 0.00 53 1010.0
20260509190711 30 254 4.8 9.7 0.00 0.00 0.00 52 1010.1
20260509190116 30 28 3.2 9.7 0.00 0.00 0.00 52 1010.2
20260509185650 30 355 6.4 9.7 0.00 0.00 0.00 52 1010.2
20260509185116 30 360 1.6 12.9 0.00 0.00 0.00 53 1010.2
20260509184141 30 169 6.4 16.1 0.00 0.00 0.00 57 1010.2
20260509183707 30 223 4.8 16.1 0.00 0.00 0.00 55 1010.2
20260509183138 29 263 4.8 11.3 0.00 0.00 0.00 55 1010.2
20260509182706 29 246 3.2 9.7 0.00 0.00 0.00 56 1010.3
20260509182136 29 184 3.2 9.7 0.00 0.00 0.00 57 1010.3
20260509181702 28 149 0.0 11.3 0.00 0.00 0.00 58 1010.5
20260509181134 28 272 6.4 11.3 0.00 0.00 0.00 59 1010.6
20260509180700 28 280 3.2 8.0 0.00 0.00 0.00 59 1010.7
20260509180116 28 229 1.6 12.9 0.00 0.00 0.00 59 1010.7
20260509175642 28 242 4.8 12.9 0.00 0.00 0.00 59 1010.7
20260509175154 28 360 3.2 8.0 0.00 0.00 0.00 59 1010.7
20260509174658 28 257 1.6 8.0 0.00 0.00 0.00 64 1010.8
20260509174123 28 294 3.2 8.0 0.00 0.00 0.00 61 1010.8
20260509173658 28 259 1.6 6.4 0.00 0.00 0.00 66 1011.0
20260509173122 27 90 3.2 6.4 0.00 0.00 0.00 65 1011.1
20260509172654 27 107 0.0 6.4 0.00 0.00 0.00 67 1011.1
20260509172117 27 187 0.0 9.7 0.00 0.00 0.00 69 1011.2
20260509171651 26 91 4.8 9.7 0.00 0.00 0.00 69 1011.2
20260509171118 26 317 4.8 11.3 0.00 0.00 0.00 70 1011.1
20260509170651 26 18 4.8 11.3 0.00 0.00 0.00 72 1011.2
20260509170116 26 261 1.6 9.7 0.00 0.00 0.00 72 1011.1
20260509165641 26 334 3.2 9.7 0.00 0.00 0.00 74 1011.2
20260509165115 26 185 1.6 8.0 0.00 0.00 0.00 75 1011.2
20260509164641 25 45 3.2 8.0 0.00 0.00 0.00 77 1011.3
20260509164114 25 338 1.6 8.0 0.00 0.00 0.00 79 1011.4
20260509163639 25 297 1.6 8.0 0.00 0.00 0.00 80 1011.4
20260509163117 25 325 1.6 8.0 0.00 0.00 0.00 82 1011.4
20260509162622 25 271 1.6 8.0 0.00 0.00 0.00 83 1011.5
20260509162156 24 348 4.8 8.0 0.00 0.00 0.00 84 1011.7
20260509161721 24 271 3.2 8.0 0.00 0.00 0.00 86 1011.7
20260509161129 23 355 1.6 8.0 0.00 0.00 0.00 87 1011.7
20260509160654 23 5 4.8 8.0 0.00 0.00 0.00 88 1011.7
20260509160119 23 342 3.2 8.0 0.00 0.00 0.00 88 1011.8
20260509155653 23 13 1.6 9.7 0.00 0.00 0.00 89 1011.8
20260509155118 23 344 4.8 9.7 0.00 0.00 0.00 90 1011.8
20260509154652 23 320 4.8 8.0 0.00 0.00 0.00 91 1011.7
20260509154117 23 211 1.6 3.2 0.00 0.00 0.00 92 1011.6
20260509153651 23 195 0.0 8.0 0.00 0.00 0.00 92 1011.6
20260509153121 23 195 1.6 11.3 0.00 0.00 0.00 94 1011.6
20260509152654 23 141 1.6 11.3 0.00 0.00 0.00 94 1011.5
20260509152219 23 225 6.4 14.5 0.00 0.00 0.00 95 1011.6
20260509151622 23 170 6.4 16.1 0.00 0.00 0.00 95 1011.4
20260509151155 22 173 8.0 16.1 0.00 0.00 0.00 95 1011.3
20260509150617 22 143 11.3 16.1 0.00 0.00 0.00 95 1011.5
20260509150148 22 178 8.0 14.5 0.00 0.00 0.00 95 1011.7
20260509145613 22 167 8.0 14.5 0.00 0.00 0.00 95 1011.9
20260509145121 22 166 8.0 11.3 0.00 0.00 0.00 95 1011.8
20260509144647 22 161 1.6 8.0 0.00 0.00 0.00 95 1012.0
20260509144211 22 161 3.2 8.0 0.00 0.00 0.00 95 1012.1
20260509143627 22 193 1.6 8.0 0.00 0.00 0.00 96 1012.0
20260509143153 22 140 4.8 8.0 0.00 0.00 0.00 96 1011.9
20260509142705 22 67 1.6 9.7 0.00 0.00 0.00 96 1011.6
20260509142130 22 67 3.2 9.7 0.00 0.00 0.00 96 1011.8
20260509141705 22 53 6.4 9.7 0.00 0.00 0.00 96 1011.6
20260509141131 22 317 3.2 9.7 0.00 0.00 0.00 96 1011.4
20260509140705 22 336 8.0 9.7 0.00 0.00 0.00 96 1011.4
20260509140229 22 29 3.2 8.0 0.00 0.00 0.00 96 1011.3
20260509135639 22 337 4.8 8.0 0.00 0.00 0.00 96 1011.2
20260509135204 22 24 3.2 8.0 0.00 0.00 0.00 96 1011.1
20260509134633 22 5 4.8 8.0 0.00 0.00 0.00 96 1011.1
20260509134204 22 347 1.6 6.4 0.00 0.00 0.00 96 1011.2
20260509133631 22 347 3.2 4.8 0.00 0.00 0.00 96 1011.3
20260509133145 22 326 1.6 3.2 0.00 0.00 0.00 96 1011.3
20260509132710 22 326 1.6 3.2 0.00 0.00 0.00 96 1011.2
20260509132113 22 326 1.6 3.2 0.00 0.00 0.00 96 1011.2
20260509131647 22 326 1.6 6.4 0.00 0.00 0.00 96 1011.3
20260509131152 22 326 1.6 6.4 0.00 0.00 0.00 96 1011.4
20260509130625 22 326 3.2 3.2 0.00 0.00 0.00 96 1011.4
20260509130151 22 326 1.6 8.0 0.00 0.00 0.00 96 1011.4
20260509125635 22 326 3.2 8.0 0.00 0.00 0.00 96 1011.3
20260509125208 22 331 1.6 4.8 0.00 0.00 0.00 96 1011.3
20260509124637 22 319 3.2 8.0 0.00 0.00 0.00 96 1011.2
20260509124208 22 306 4.8 8.0 0.00 0.00 0.00 96 1011.2
20260509123633 22 61 0.0 3.2 0.00 0.00 0.00 96 1011.1
20260509123205 22 60 0.0 6.4 0.00 0.00 0.00 96 1011.0
20260509122632 22 85 1.6 9.7 0.00 0.00 0.00 96 1011.0
20260509122137 22 42 1.6 9.7 0.00 0.00 0.00 96 1011.2
20260509121711 22 76 3.2 11.3 0.00 0.00 0.00 95 1011.2
20260509121113 22 24 6.4 11.3 0.00 0.00 0.00 95 1011.4